Weerstation Grootegast  Weerstation Grootegast


15 daagse weersverwachting Breda (NL)

  • Overzicht
  • Per uur
  • 15 dagen
  • Extra
  • Vergelijk
  • Kaarten
  • Dagkaart
  • Meer »
  • Info
  • Statistieken
  • Directe link
    Temp 6h Neerslag Wind  
 05:34     21:43    Daglengte: 16:09 Vandaag
08:00
20°
 
4
14:00
27°
 
4
20:00
24°
1.5 mm
2
 05:33     21:44    Daglengte: 16:11 Morgen
02:00
20°
 
2
08:00
20°
 
2
14:00
29°
 
2
20:00
26°
 
4
 05:32     21:45    Daglengte: 16:13 Dinsdag 29 Mei
02:00
21°
 
4
08:00
20°
 
5
14:00
29°
 
5
20:00
24°
16.3 mm
3
warningclass
 05:32     21:47    Daglengte: 16:15 Woensdag 30 Mei
02:00
18°
13.0 mm
2
Locatie info
Region: Noord-Brabant
Latitude: 51.5913°N
Longitude: 4.7717°E
9 masl
Postcode: 4811
Temp/Neerslag /Baro Onweer/Dauwpunt
    Temp Baro 1h Neerslag Dauwpunt Wind UV Bewolking  
 05:34     21:43    Daglengte: 16:09 Vandaag
08:00
20°
1018.0 hPa
11%
13.5°
4
Windvlaag: -0.1 m/s
44%
09:00
21°
1018.0 hPa
20%
13.8°
4
Windvlaag: 0.2 m/s
14%
10:00
23°
1018.2 hPa
35%
13.3°
4
Windvlaag: 0.1 m/s
57%
11:00
25°
1018.0 hPa
68%
13.8°
4
Windvlaag: 0.6 m/s
53%
12:00
27°
1017.8 hPa
13%
14.5°
4
Windvlaag: 0.8 m/s
64%
13:00
27°
1017.5 hPa
80%
14.9°
4
Windvlaag: 0.6 m/s
64%
14:00
27°
1017.0 hPa
82%
14.5°
4
Windvlaag: 0.6 m/s
82%
15:00
28°
1016.3 hPa
17%
14.9°
3
Windvlaag: 1.5 m/s
82%
16:00
27°
1015.8 hPa 0.8 mm
64%
13.1°
3
Windvlaag: 3.7 m/s
62% warningclass
17:00
26°
1015.6 hPa 0.7 mm
77%
11.7°
3
Windvlaag: 2.3 m/s
45% warningclass
18:00
25°
1015.4 hPa
82%
11.5°
4
Windvlaag: -0.1 m/s
43%
19:00
24°
1015.4 hPa
78%
11.5°
3
Windvlaag: -0 m/s
19%
20:00
24°
1015.5 hPa
17%
14.1°
2
Windvlaag: -1.7 m/s
48%
21:00
23°
1015.5 hPa
32%
15.1°
2
Windvlaag: -1.3 m/s
43%
22:00
22°
1015.9 hPa
25%
15.9°
2
Windvlaag: -1.2 m/s
41%
23:00
21°
1016.1 hPa
21%
15.6°
3
Windvlaag: -0.9 m/s
39%
 05:33     21:44    Daglengte: 16:11 Morgen
00:00
21°
1016.0 hPa
62%
15.1°
3
Windvlaag: 0.1 m/s
45%
01:00
21°
1016.1 hPa
78%
15.1°
3
Windvlaag: 0.4 m/s
48%
02:00
20°
1015.9 hPa
75%
16.3°
2
Windvlaag: 1.2 m/s
26%
03:00
19°
1015.5 hPa
54%
16.8°
2
Windvlaag: 1.6 m/s
26%
04:00
19°
1015.6 hPa
23%
17.0°
2
Windvlaag: 1.1 m/s
16%
05:00
18°
1015.6 hPa
70%
17.4°
1
Windvlaag: 0.6 m/s
7%
06:00
18°
1016.0 hPa
29%
17.2°
2
Windvlaag: 0.1 m/s
9%
07:00
18°
1016.2 hPa
14%
17.3°
1
Windvlaag: 0.3 m/s
19%
08:00
20°
1016.7 hPa
14%
17.0°
2
Windvlaag: -0.8 m/s
28%
09:00
23°
1016.8 hPa
14%
16.5°
2
Windvlaag: -0.5 m/s
13%
10:00
25°
1017.1 hPa
14%
15.8°
2
Windvlaag: -0.4 m/s
9%
11:00
26°
1016.9 hPa
14%
15.6°
2
Windvlaag: -1 m/s
10%
12:00
28°
1016.9 hPa
66%
16.0°
2
Windvlaag: -1.6 m/s
9%
13:00
28°
1016.8 hPa
74%
16.8°
2
Windvlaag: -2.3 m/s
26%
14:00
29°
1016.6 hPa
67%
16.8°
2
Windvlaag: -2.7 m/s
24%
15:00
28°
1016.4 hPa
79%
15.1°
2
Windvlaag: -1.9 m/s
14%
16:00
28°
1016.1 hPa
77%
15.0°
2
Windvlaag: -2.8 m/s
13%
17:00
28°
Voelt als: 28.2°
1015.7 hPa
77%
14.6°
3
Windvlaag: -4.3 m/s
37%
18:00
28°
Voelt als: 27.5°
1015.8 hPa
76%
13.4°
4
Windvlaag: -6.1 m/s
33%
19:00
27°
1015.6 hPa
21%
13.2°
4
Windvlaag: -6.1 m/s
34%
20:00
26°
1015.8 hPa
14%
13.1°
4
Windvlaag: -5.7 m/s
32%
21:00
25°
1016.2 hPa
14%
13.0°
4
Windvlaag: -4.6 m/s
23%
22:00
23°
1016.5 hPa
14%
15.2°
4
Windvlaag: -4.4 m/s
45%
23:00
22°
1016.3 hPa
14%
16.8°
3
Windvlaag: -4 m/s
20%
 05:32     21:45    Daglengte: 16:13 Dinsdag 29 Mei
00:00
22°
1016.3 hPa
14%
17.2°
4
Windvlaag: -2.7 m/s
17%
01:00
21°
1016.3 hPa
14%
17.8°
4
Windvlaag: -4 m/s
16%
02:00
21°
1016.0 hPa
14%
18.0°
4
Windvlaag: -4 m/s
13%
03:00
20°
1015.5 hPa
14%
17.7°
4
Windvlaag: -4 m/s
14%
04:00
20°
1015.1 hPa
14%
17.7°
4
Windvlaag: -3.4 m/s
15%
05:00
19°
1015.0 hPa
21%
16.7°
4
Windvlaag: -3.6 m/s
57%
06:00
19°
1014.9 hPa
21%
16.6°
4
Windvlaag: -3 m/s
43%
07:00
19°
1014.8 hPa
21%
16.6°
5
Windvlaag: -3.5 m/s
25%
08:00
20°
1014.7 hPa
21%
16.7°
5
Windvlaag: -3.6 m/s
18%
09:00
21°
1014.5 hPa
21%
17.0°
5
Windvlaag: -4.4 m/s
23%
10:00
23°
1014.1 hPa
21%
17.0°
5
Windvlaag: -5.3 m/s
45%
11:00
24°
1013.8 hPa
21%
16.3°
5
Windvlaag: -6.2 m/s
18%
12:00
26°
1013.2 hPa
21%
15.9°
5
Windvlaag: -6.7 m/s
14%
13:00
28°
1012.6 hPa
21%
15.9°
5
Windvlaag: -7 m/s
15%
14:00
29°
1011.8 hPa
21%
15.8°
5
Windvlaag: -7.3 m/s
23%
15:00
29°
1011.0 hPa
21%
18.1°
5
Windvlaag: -7.5 m/s
42%
16:00
29°
1010.4 hPa 2.9 mm
25%
16.8°
5
Windvlaag: -8.2 m/s
52% warningclass
17:00
27°
1009.5 hPa 3.7 mm
28%
21.3°
5
Windvlaag: -8.2 m/s
73% warningclass
18:00
26°
1010.6 hPa 4.8 mm
30%
24.1°
6
Windvlaag: -6.5 m/s
84% warningclass
19:00
25°
1010.3 hPa
32%
21.1°
5
Windvlaag: -8.5 m/s
88%
20:00
24°
1010.3 hPa 4.9 mm
92%
20.3°
3
Windvlaag: -8.9 m/s
90% warningclass
21:00
23°
1010.5 hPa
37%
19.5°
4
Windvlaag: -8.8 m/s
67%
22:00
22°
1010.6 hPa
22%
19.8°
4
Windvlaag: -8.1 m/s
81%
23:00
21°
1011.1 hPa
35%
19.1°
3
Windvlaag: -7.9 m/s
81%
 05:32     21:47    Daglengte: 16:15 Woensdag 30 Mei
00:00
20°
1011.1 hPa 4.8 mm
36%
18.3°
3
Windvlaag: -7.7 m/s
65% warningclass
01:00
19°
1010.5 hPa 3.0 mm
87%
17.6°
3
Windvlaag: -6.9 m/s
53%
02:00
18°
1009.9 hPa 5.1 mm
100%
17.5°
2
Windvlaag: -6.2 m/s
42%
03:00
18°
1011.3 hPa 5.2 mm
100%
18.1°
1
Windvlaag: 1.6 m/s
84%
04:00
17°
1011.0 hPa 5.1 mm
100%
17.4°
2
Windvlaag: 3.6 m/s
85%
05:00
17°
1010.8 hPa 5.9 mm
100%
17.2°
1
Windvlaag: 3.7 m/s
67%
06:00
17°
1010.9 hPa 6.9 mm
100%
17.0°
1
Windvlaag: 4.5 m/s
95% warningclass
07:00
17°
1011.0 hPa 5.5 mm
100%
17.2°
2
Windvlaag: 3.5 m/s
99%
Temp/Neerslag /Baro Onweer/Dauwpunt
    Temp Baro Neerslag Dauwpunt Wind Bewolking  
 05:34     21:43    Daglengte: 16:09 Vandaag
08:00
20°
1018.0 hPa   13.5°
4
44%
11:00
25°
1018.0 hPa   13.8°
4
53%
14:00
27°
1017.0 hPa   14.5°
4
82%
17:00
26°
1015.6 hPa 1.5 mm 11.7°
3
45% warningclass
20:00
24°
1015.5 hPa   14.1°
2
48%
23:00
21°
1016.1 hPa   15.6°
3
39%
 05:33     21:44    Daglengte: 16:11 Morgen
02:00
20°
1015.9 hPa   16.3°
2
26%
05:00
18°
1015.6 hPa   17.4°
1
7%
08:00
20°
1016.7 hPa   17.0°
2
28%
11:00
26°
1016.9 hPa   15.6°
2
10%
14:00
29°
1016.6 hPa   16.8°
2
24%
17:00
28°
Voelt als: 28.2°
1015.7 hPa   14.6°
3
37%
20:00
26°
1015.8 hPa   13.1°
4
32%
23:00
22°
1016.3 hPa   16.8°
3
20%
 05:32     21:45    Daglengte: 16:13 Dinsdag 29 Mei
02:00
21°
1016.0 hPa   18.0°
4
13%
05:00
19°
1015.0 hPa   16.7°
4
57%
08:00
20°
1014.7 hPa   16.7°
5
18%
11:00
24°
1013.8 hPa   16.3°
5
18%
14:00
29°
1011.8 hPa   15.8°
5
23%
17:00
27°
1009.5 hPa 6.6 mm 21.3°
5
73% warningclass
20:00
24°
1010.3 hPa 9.6 mm 20.3°
3
90% warningclass
23:00
21°
1011.1 hPa   19.1°
3
81%
 05:32     21:47    Daglengte: 16:15 Woensdag 30 Mei
02:00
18°
1009.9 hPa 13.0 mm 17.5°
2
42%
05:00
17°
1010.8 hPa 16.2 mm 17.2°
1
67%
08:00
18°
1011.2 hPa 17.7 mm 17.4°
2
78%
11:00
23°
1010.3 hPa   18.2°
3
0%
14:00
25°
1010.1 hPa 0.3 mm 18.1°
3
0%
17:00
26°
1009.8 hPa 1.5 mm 17.6°
2
0%
20:00
24°
1010.3 hPa 7.2 mm 20.2°
2
0%
23:00
20°
1011.7 hPa 0.8 mm 17.0°
1
1%
 05:31     21:48    Daglengte: 16:17 Donderdag 31 Mei
02:00
19°
1012.0 hPa 0.8 mm 16.8°
0
1%
05:00
18°
1012.3 hPa   16.5°
0
1%
08:00
20°
1013.1 hPa   18.2°
0
1%
11:00
24°
1013.5 hPa 1.0 mm 19.3°
2
1%
14:00
24°
1013.8 hPa 4.6 mm 18.5°
1
1%
17:00
23°
1013.5 hPa 0.8 mm 19.4°
3
1%
20:00
22°
1013.7 hPa 3.1 mm 19.5°
3
1%
23:00
19°
1014.7 hPa 3.4 mm 17.8°
2
1%
 05:30     21:49    Daglengte: 16:19 Vrijdag 01 Jun
02:00
18°
1014.5 hPa 3.9 mm 17.2°
2
1%
05:00
17°
1014.4 hPa   16.1°
3
1%
08:00
19°
1015.0 hPa   17.4°
2
1%
11:00
23°
1014.9 hPa 1.2 mm 18.7°
3
1%
14:00
23°
1014.9 hPa 4.9 mm 18.8°
3
1%
17:00
22°
1014.9 hPa 1.4 mm 19.1°
3
1%
20:00
20°
1015.2 hPa 2.2 mm 18.7°
3
1%
23:00
18°
1016.1 hPa   17.0°
3
1%
 05:29     21:50    Daglengte: 16:21 Zaterdag 02 Jun
02:00
17°
1016.2 hPa 1.4 mm 15.9°
4
1%
05:00
16°
1016.3 hPa 0.3 mm 14.9°
4
1%
08:00
16°
1016.9 hPa 0.3 mm 14.9°
4
1%
11:00
20°
1017.8 hPa   16.6°
5
1%
14:00
21°
1018.2 hPa   17.4°
5
1%
17:00
22°
1017.9 hPa   17.1°
5
0%
20:00
19°
1018.3 hPa   15.8°
4
0%
23:00
15°
1019.5 hPa   14.1°
2
0%
 05:29     21:51    Daglengte: 16:22 Zondag 03 Jun
02:00
14°
1019.2 hPa   13.8°
2
0%
05:00
14°
1019.1 hPa   13.7°
2
0%
08:00
16°
1019.5 hPa   14.8°
1
0%
14:00
20°
1019.3 hPa 0.3 mm 16.3°
2
1%
20:00
20°
1018.2 hPa 0.1 mm 15.3°
4
1%
 05:28     21:52    Daglengte: 16:24 Maandag 04 Jun
02:00
13°
1018.6 hPa   8.5°
3
0%
08:00
13°
1017.7 hPa   7.9°
3
1%
14:00
22°
1016.6 hPa   12.7°
4
0%
20:00
17°
1016.0 hPa 0.3 mm 12.7°
5
1%
 05:27     21:53    Daglengte: 16:26 Dinsdag 05 Jun
02:00
Voelt als: 6.7°
1018.2 hPa   5.7°
3
0%
08:00
11°
1018.4 hPa   6.4°
4
0%
14:00
13°
1018.5 hPa   6.0°
5
1%
20:00
11°
1017.9 hPa   6.3°
4
1%
 05:27     21:54    Daglengte: 16:27 Woensdag 06 Jun
02:00
12°
1018.0 hPa 0.1 mm 9.4°
3
20%
08:00
13°
1018.1 hPa   9.7°
3
25%
14:00
20°
1017.9 hPa 0.2 mm 9.9°
3
30%
20:00
18°
1017.2 hPa 0.6 mm 10.5°
4
26%
 05:26     21:55    Daglengte: 16:29 Donderdag 07 Jun
02:00
12°
1018.2 hPa   8.7°
4
23%
08:00
13°
1018.3 hPa 0.1 mm 8.9°
3
30%
14:00
19°
1018.1 hPa 0.3 mm 9.4°
4
37%
20:00
18°
1017.2 hPa 0.5 mm 9.8°
4
38%
 05:26     21:55    Daglengte: 16:29 Vrijdag 08 Jun
02:00
12°
1017.7 hPa 0.2 mm 8.5°
2
24%
08:00
13°
1017.1 hPa 0.3 mm 9.3°
2
27%
14:00
19°
1016.5 hPa 0.4 mm 10.2°
3
34%
20:00
18°
1015.7 hPa 0.2 mm 9.9°
4
29%
 05:25     21:56    Daglengte: 16:31 Zaterdag 09 Jun
02:00
12°
1016.7 hPa   8.2°
2
22%
08:00
13°
1016.6 hPa 0.1 mm 8.4°
2
34%
14:00
19°
1016.5 hPa 0.5 mm 9.1°
3
45%
20:00
18°
1015.7 hPa 0.5 mm 9.6°
4
42%
 05:25     21:57    Daglengte: 16:32 Zondag 10 Jun
02:00
12°
1016.6 hPa 0.1 mm 7.5°
3
29%
08:00
13°
1016.0 hPa   8.6°
3
30%
14:00
20°
1015.5 hPa 0.2 mm 9.3°
2
28%
20:00
19°
1015.0 hPa 0.5 mm 10.2°
4
41%
 05:25     21:58    Daglengte: 16:33 Maandag 11 Jun
02:00
12°
1016.2 hPa 0.1 mm 8.9°
2
31%
  CAPE Lifted Index Hail Supercell Tornado SRH 3km CL BTM PRES CL TOP PRES Swiss DWD icon SMHI TS
 05:34     21:43    Daglengte: 16:09 Vandaag
08:00 0 J/kg -2.6 K 0 % 0 % 0 % 0 m²/s² 0 0 -1.52 3
09:00 140 J/kg -2.4 K 0 % 0 % 0 % 0 m²/s² 0 0 -1.89 1
10:00 710 J/kg -2.7 K 0 % 0 % 0 % 0 m²/s² 0 0 -2.28 3
11:00 1085 J/kg -3.8 K 0 % 0 % 0 % 0 m²/s² 0 0 -3.14 3
12:00 1290 J/kg -4.0 K 0 % 0 % 0 % 0 m²/s² 0 0 -3.91 3
13:00 1366 J/kg -4.1 K 0 % 0 % 0 % 0 m²/s² 0 0 -3.68 3
14:00 1531 J/kg -4.5 K 0 % 0 % 0 % 0 m²/s² 0 0 -4.29 80
15:00 1383 J/kg -3.9 K 0 % 0 % 0 % 0 m²/s² 0 0 -3.39 3
16:00 1496 J/kg -4.2 K 0 % 0 % 0 % 0 m²/s² 0 0 -3.93 3
17:00 1351 J/kg -3.6 K 0 % 0 % 0 % 0 m²/s² 0 0 -3.12 80
18:00 1556 J/kg -4.5 K 0 % 0 % 0 % 0 m²/s² 0 0 -3.6 80
19:00 817 J/kg -2.5 K 0 % 0 % 0 % 0 m²/s² 0 0 -1.57 3
20:00 564 J/kg -2.1 K 0 % 0 % 0 % 0 m²/s² 0 0 -1.29 3
21:00 496 J/kg -2.0 K 0 % 0 % 0 % 0 m²/s² 0 0 -1.34 3
22:00 402 J/kg -1.5 K 0 % 0 % 0 % 0 m²/s² 0 0 -0.51 3
23:00 201 J/kg -1.6 K 0 % 0 % 0 % 0 m²/s² 0 0 -0.76 3
 05:33     21:44    Daglengte: 16:11 Morgen
00:00 0 J/kg -0.6 K 0 % 0 % 0 % 0 m²/s² 0 0 0.72 80
01:00 0 J/kg -0.7 K 0 % 0 % 0 % 0 m²/s² 0 0 0.65 3
02:00 0 J/kg -2.8 K 0 % 0 % 0 % 0 m²/s² 0 0 -1.66 81
03:00 0 J/kg -4.3 K 0 % 0 % 0 % 0 m²/s² 0 0 -2.89 3
04:00 27 J/kg -4.7 K 0 % 0 % 0 % 0 m²/s² 0 0 -3.5 3
05:00 0 J/kg -3.2 K 0 % 0 % 0 % 0 m²/s² 0 0 -1.37 2
06:00 0 J/kg -3.8 K 0 % 0 % 0 % 0 m²/s² 0 0 -2.15 2
07:00 0 J/kg -3.6 K 0 % 0 % 0 % 0 m²/s² 0 0 -2.4 3
08:00 55 J/kg -3.8 K 0 % 0 % 0 % 0 m²/s² 0 0 -3.14 3
09:00 180 J/kg -2.9 K 0 % 0 % 0 % 0 m²/s² 0 0 -2.24 1
10:00 727 J/kg -3.4 K 0 % 0 % 0 % 0 m²/s² 0 0 -2.5 1
11:00 1174 J/kg -4.6 K 0 % 0 % 0 % 0 m²/s² 0 0 -3.61 0
12:00 1384 J/kg -4.7 K 0 % 0 % 0 % 0 m²/s² 0 0 -3.44 1
13:00 1455 J/kg -4.9 K 0 % 0 % 0 % 0 m²/s² 0 0 -3.76 3
14:00 1362 J/kg -4.5 K 0 % 0 % 0 % 0 m²/s² 0 0 -3.39 3
15:00 1255 J/kg -4.2 K 0 % 0 % 0 % 0 m²/s² 0 0 -3.21 3
16:00 1207 J/kg -4.5 K 0 % 0 % 0 % 0 m²/s² 0 0 -3.09 80
17:00 1106 J/kg -4.0 K 0 % 0 % 0 % 0 m²/s² 0 0 -2.17 3
18:00 1210 J/kg -4.3 K 0 % 0 % 0 % 0 m²/s² 0 0 -2.89 3
19:00 1347 J/kg -4.1 K 0 % 0 % 0 % 0 m²/s² 0 0 -2.72 3
20:00 1492 J/kg -4.5 K 0 % 0 % 0 % 0 m²/s² 0 0 -2.58 3
21:00 1432 J/kg -4.7 K 0 % 0 % 0 % 0 m²/s² 0 0 -3.2 1
22:00 1027 J/kg -3.7 K 0 % 0 % 0 % 0 m²/s² 0 0 -2.59 3
23:00 697 J/kg -3.0 K 0 % 0 % 0 % 0 m²/s² 0 0 -2.01 1
 05:32     21:45    Daglengte: 16:13 Dinsdag 29 Mei
00:00 748 J/kg -4.2 K 0 % 0 % 0 % 0 m²/s² 0 0 -3.36 0
01:00 853 J/kg -5.4 K 0 % 0 % 0 % 0 m²/s² 0 0 -3.96 0
02:00 782 J/kg -5.0 K 0 % 0 % 0 % 0 m²/s² 0 0 -4.04 0
03:00 712 J/kg -4.9 K 0 % 0 % 0 % 0 m²/s² 0 0 -3.25 1
04:00 338 J/kg -4.8 K 0 % 0 % 0 % 0 m²/s² 0 0 -2.55 1
05:00 73 J/kg -5.1 K 0 % 0 % 0 % 0 m²/s² 0 0 -2.73 1
06:00 0 J/kg -4.6 K 0 % 0 % 0 % 0 m²/s² 0 0 -2.62 1
07:00 72 J/kg -4.4 K 0 % 0 % 0 % 0 m²/s² 0 0 -2.81 1
08:00 210 J/kg -3.6 K 0 % 0 % 0 % 0 m²/s² 0 0 -1.83 1
09:00 625 J/kg -3.3 K 0 % 0 % 0 % 0 m²/s² 0 0 -1.38 2
10:00 1235 J/kg -3.8 K 0 % 0 % 0 % 0 m²/s² 0 0 -2.03 0
11:00 1803 J/kg -5.3 K 0 % 0 % 0 % 0 m²/s² 0 0 -3.71 0
12:00 2010 J/kg -6.1 K 0 % 0 % 0 % 0 m²/s² 0 0 -4.57 1
13:00 2057 J/kg -6.1 K 0 % 0 % 0 % 0 m²/s² 0 0 -4.57 0
14:00 2042 J/kg -6.1 K 0 % 0 % 0 % 0 m²/s² 0 0 -4.54 0
15:00 1821 J/kg -5.7 K 0 % 0 % 0 % 0 m²/s² 0 0 -4.83 0
16:00 1819 J/kg -5.5 K 0 % 0 % 0 % 0 m²/s² 0 0 -4.33 0
17:00 2053 J/kg -5.1 K 0 % 0 % 0 % 0 m²/s² 0 0 -3.15 0
18:00 1490 J/kg -5.4 K 0 % 0 % 0 % 0 m²/s² 0 0 -4.29 3
19:00 1613 J/kg -5.2 K 0 % 0 % 0 % 0 m²/s² 0 0 -4.24 3
20:00 1584 J/kg -5.1 K 0 % 0 % 0 % 0 m²/s² 0 0 -4.08 3
21:00 1396 J/kg -4.6 K 0 % 0 % 0 % 0 m²/s² 0 0 -3.34 3
22:00 1512 J/kg -5.0 K 0 % 0 % 0 % 0 m²/s² 0 0 -3.38 3
23:00 1407 J/kg -5.0 K 0 % 0 % 0 % 0 m²/s² 0 0 -3.44 3
 05:32     21:47    Daglengte: 16:15 Woensdag 30 Mei
00:00 1140 J/kg -4.2 K 0 % 0 % 0 % 0 m²/s² 0 0 -2.4 3
01:00 911 J/kg -3.4 K 0 % 0 % 0 % 0 m²/s² 0 0 -0.85 3
02:00 775 J/kg -3.1 K 0 % 0 % 0 % 0 m²/s² 0 0 0.35 80
03:00 844 J/kg -3.2 K 0 % 0 % 0 % 0 m²/s² 0 0 0.61 80
04:00 673 J/kg -2.7 K 0 % 0 % 0 % 0 m²/s² 0 0 1.65 80
05:00 431 J/kg -3.1 K 0 % 0 % 0 % 0 m²/s² 0 0 1.25 80
06:00 211 J/kg -2.4 K 0 % 0 % 0 % 0 m²/s² 0 0 2.28 95
07:00 113 J/kg -2.0 K 0 % 0 % 0 % 0 m²/s² 0 0 1.51 80
Temp Baro Wind Neerslag
  EWN Forecast EWN WRFDA DWD ICON FMI HIRLAM MET Norway GFS
 05:34     21:43    Daglengte: 16:09 Vandaag
08:00 19.5° 1018.0 hPa 4.3 m/s 0.0 mm 18.6° 1018.9 hPa 3.9 m/s 0.0 mm 19.1° 1017.5 hPa 3.0 m/s -1.8 mm 19.6° 1018.3 hPa 4.4 m/s 0.0 mm 17.9° 1018.7 hPa 4.3 m/s
11:00 24.7° 1018.0 hPa 3.7 m/s 0.0 mm 24.7° 1018.2 hPa 2.5 m/s 0.0 mm 22.6° 1018.1 hPa 1.9 m/s 0.3 mm 25.8° 1018.1 hPa 4.4 m/s 0.0 mm 22.4° 1018.2 hPa 4.6 m/s
14:00 27.5° 1017.0 hPa 3.7 m/s 0.0 mm 24.3° 1018.3 hPa 2.3 m/s 2.7 mm 23.0° 1017.4 hPa 2.0 m/s 0.5 mm 28.5° 1017.0 hPa 5.2 m/s 0.0 mm 26.0° 1017.2 hPa 5.1 m/s
17:00 25.7° 1015.6 hPa 3.4 m/s 1.5 mm 24.9° 1016.8 hPa 4.3 m/s 5.8 mm 25.2° 1015.9 hPa 2.5 m/s 0.4 mm 29.5° 1015.0 hPa 5.5 m/s 0.0 mm 27.6° 1015.8 hPa 4.2 m/s
20:00 23.9° 1015.5 hPa 1.8 m/s 0.0 mm 24.2° 1016.4 hPa 3.3 m/s 5.8 mm 23.4° 1015.6 hPa 1.4 m/s 0.4 mm 26.5° 1015.1 hPa 0.9 m/s 0.0 mm 24.4° 1015.7 hPa 4.0 m/s
23:00 21.3° 1016.1 hPa 2.7 m/s 0.0 mm 19.7° 1017.4 hPa 3.2 m/s 5.8 mm 20.6° 1016.0 hPa 1.6 m/s 0.0 mm 23.0° 1015.6 hPa 2.7 m/s 0.0 mm 19.3° 1016.5 hPa 1.3 m/s
 05:33     21:44    Daglengte: 16:11 Morgen
02:00 20.0° 1015.9 hPa 2.2 m/s 0.0 mm 17.5° 1017.6 hPa 3.4 m/s 5.8 mm 19.0° 1015.8 hPa 2.2 m/s 3.9 mm 20.6° 1015.2 hPa 1.9 m/s 0.0 mm 18.5° 1016.8 hPa 3.0 m/s
05:00 18.2° 1015.6 hPa 1.4 m/s 0.0 mm 16.9° 1016.5 hPa 2.4 m/s 5.8 mm 18.2° 1016.0 hPa 1.3 m/s 0.0 mm 17.9° 1014.7 hPa 1.3 m/s 0.0 mm 17.8° 1016.4 hPa 2.5 m/s
08:00 20.4° 1016.7 hPa 1.8 m/s 0.0 mm 19.3° 1017.4 hPa 1.3 m/s 5.8 mm 19.5° 1016.7 hPa 2.5 m/s 0.0 mm 20.8° 1016.0 hPa 1.8 m/s 0.0 mm 20.2° 1017.0 hPa 2.4 m/s
11:00 26.3° 1016.9 hPa 1.9 m/s 0.0 mm 25.1° 1017.7 hPa 3.3 m/s 5.8 mm 24.4° 1016.8 hPa 1.7 m/s 0.0 mm 27.9° 1016.7 hPa 0.8 m/s 0.0 mm 25.1° 1017.3 hPa 2.4 m/s
14:00 28.5° 1016.6 hPa 2.2 m/s 0.0 mm 28.8° 1017.0 hPa 3.1 m/s 5.8 mm 27.4° 1016.6 hPa 0.5 m/s 0.2 mm 28.6° 1016.4 hPa 2.3 m/s 0.0 mm 28.3° 1016.6 hPa 2.5 m/s
17:00 28.3° 1015.7 hPa 3.0 m/s 0.0 mm 29.6° 1015.4 hPa 3.4 m/s 8.5 mm 26.6° 1016.1 hPa 1.4 m/s 0.5 mm 30.5° 1015.1 hPa 3.1 m/s 0.0 mm 29.5° 1016.0 hPa 2.7 m/s
20:00 25.9° 1015.8 hPa 3.9 m/s 0.0 mm 26.8° 1014.8 hPa 1.6 m/s 11.2 mm 25.2° 1015.9 hPa 3.7 m/s 0.0 mm 29.3° 1015.6 hPa 4.0 m/s 0.0 mm 25.7° 1016.4 hPa 3.3 m/s
23:00 22.4° 1016.3 hPa 3.5 m/s 0.0 mm 23.8° 1015.9 hPa 4.2 m/s 14.3 mm 21.3° 1016.4 hPa 3.2 m/s 0.0 mm 24.4° 1016.3 hPa 3.1 m/s 0.0 mm 22.3° 1017.0 hPa 5.2 m/s
 05:32     21:45    Daglengte: 16:13 Dinsdag 29 Mei
02:00 20.8° 1016.0 hPa 3.5 m/s 0.0 mm 20.8° 1016.5 hPa 4.1 m/s 15.4 mm 19.7° 1016.0 hPa 3.2 m/s 0.0 mm 22.0° 1015.5 hPa 3.3 m/s 0.0 mm 19.2° 1016.7 hPa 4.8 m/s
05:00 19.3° 1015.0 hPa 4.2 m/s 0.0 mm 20.0° 1014.4 hPa 4.2 m/s 16.8 mm 18.1° 1015.2 hPa 3.7 m/s 0.0 mm 18.5° 1015.5 hPa 4.0 m/s
08:00 19.6° 1014.7 hPa 4.7 m/s 0.0 mm 20.9° 1013.2 hPa 5.2 m/s 18.1 mm 18.6° 1015.0 hPa 4.1 m/s 0.0 mm 18.9° 1015.2 hPa 4.6 m/s
11:00 24.2° 1013.8 hPa 4.8 m/s 0.0 mm 26.6° 1012.7 hPa 3.7 m/s 18.1 mm 23.1° 1014.4 hPa 4.8 m/s 0.0 mm 23.7° 1014.3 hPa 5.2 m/s
14:00 28.9° 1011.8 hPa 5.1 m/s 0.0 mm 30.6° 1011.4 hPa 4.1 m/s 18.1 mm 27.2° 1012.8 hPa 5.1 m/s 0.0 mm 26.2° 1013.6 hPa 3.6 m/s
17:00 27.1° 1009.5 hPa 4.8 m/s 6.6 mm 25.9° 1008.7 hPa 3.5 m/s 25.2 mm 27.1° 1011.3 hPa 4.8 m/s 0.0 mm 24.8° 1012.2 hPa 2.4 m/s
20:00 24.1° 1010.3 hPa 3.5 m/s 9.6 mm 23.5° 1010.4 hPa 3.0 m/s 42.4 mm 24.0° 1011.5 hPa 1.2 m/s 0.2 mm 23.0° 1011.2 hPa 2.7 m/s
23:00 20.7° 1011.1 hPa 3.2 m/s 0.0 mm 20.8° 1011.6 hPa 1.2 m/s 42.8 mm 19.8° 1011.9 hPa 2.7 m/s 0.0 mm 20.3° 1011.5 hPa 4.0 m/s
 05:32     21:47    Daglengte: 16:15 Woensdag 30 Mei
02:00 18.1° 1009.9 hPa 1.8 m/s 13.0 mm 18.6° 1010.3 hPa 1.3 m/s 42.8 mm 18.2° 1011.7 hPa 1.1 m/s 0.6 mm 18.9° 1010.4 hPa 1.2 m/s
05:00 17.2° 1010.8 hPa 1.3 m/s 16.2 mm 17.5° 1010.2 hPa 1.8 m/s 42.8 mm 17.1° 1011.0 hPa 1.1 m/s 2.8 mm 17.5° 1009.8 hPa 0.3 m/s
08:00 17.6° 1011.2 hPa 1.7 m/s 17.7 mm 18.2° 1010.4 hPa 3.0 m/s 42.9 mm 17.4° 1011.4 hPa 1.4 m/s 5.1 mm 19.6° 1009.9 hPa 1.8 m/s
11:00 23.4° 1010.3 hPa 3.2 m/s 0.0 mm 23.4° 1010.3 hPa 3.2 m/s 0.0 mm
14:00 25.3° 1010.1 hPa 2.9 m/s 0.3 mm 25.3° 1010.1 hPa 2.9 m/s 0.3 mm
17:00 25.8° 1009.8 hPa 1.9 m/s 1.5 mm 25.8° 1009.8 hPa 1.9 m/s 1.5 mm
20:00 23.6° 1010.3 hPa 1.6 m/s 7.2 mm 23.6° 1010.3 hPa 1.6 m/s 7.2 mm
23:00 19.7° 1011.7 hPa 1.2 m/s 0.8 mm 19.7° 1011.7 hPa 1.2 m/s 0.8 mm
 05:31     21:48    Daglengte: 16:17 Donderdag 31 Mei
02:00 18.7° 1012.0 hPa 0.3 m/s 0.8 mm 18.7° 1012.0 hPa 0.3 m/s 0.8 mm
05:00 17.9° 1012.3 hPa 0.5 m/s 0.0 mm 17.9° 1012.3 hPa 0.5 m/s 0.0 mm
08:00 20.4° 1013.1 hPa 0.4 m/s 0.0 mm 20.4° 1013.1 hPa 0.4 m/s 0.0 mm
11:00 23.9° 1013.5 hPa 1.6 m/s 1.0 mm 23.9° 1013.5 hPa 1.6 m/s 1.0 mm
14:00 23.7° 1013.8 hPa 1.3 m/s 4.6 mm 23.7° 1013.8 hPa 1.3 m/s 4.6 mm
17:00 23.4° 1013.5 hPa 2.6 m/s 0.8 mm 23.4° 1013.5 hPa 2.6 m/s 0.8 mm
20:00 21.6° 1013.7 hPa 2.6 m/s 3.1 mm 21.6° 1013.7 hPa 2.6 m/s 3.1 mm
23:00 19.3° 1014.7 hPa 2.5 m/s 3.4 mm 19.3° 1014.7 hPa 2.5 m/s 3.4 mm
 05:30     21:49    Daglengte: 16:19 Vrijdag 01 Jun
02:00 18.4° 1014.5 hPa 2.4 m/s 3.9 mm 18.4° 1014.5 hPa 2.4 m/s 3.9 mm
05:00 17.2° 1014.4 hPa 2.7 m/s 0.0 mm 17.2° 1014.4 hPa 2.7 m/s 0.0 mm
08:00 19.1° 1015.0 hPa 2.2 m/s 0.0 mm 19.1° 1015.0 hPa 2.2 m/s 0.0 mm
11:00 23.1° 1014.9 hPa 3.0 m/s 1.2 mm 23.1° 1014.9 hPa 3.0 m/s 1.2 mm
14:00 23.0° 1014.9 hPa 3.4 m/s 4.9 mm 23.0° 1014.9 hPa 3.4 m/s 4.9 mm
17:00 22.3° 1014.9 hPa 3.3 m/s 1.4 mm 22.3° 1014.9 hPa 3.3 m/s 1.4 mm
20:00 20.5° 1015.2 hPa 2.8 m/s 2.2 mm 20.5° 1015.2 hPa 2.8 m/s 2.2 mm
23:00 18.2° 1016.1 hPa 3.2 m/s 0.0 mm 18.2° 1016.1 hPa 3.2 m/s 0.1 mm
 05:29     21:50    Daglengte: 16:21 Zaterdag 02 Jun
02:00 16.7° 1016.2 hPa 3.9 m/s 1.4 mm 16.7° 1016.2 hPa 3.9 m/s 1.4 mm
05:00 15.5° 1016.3 hPa 4.0 m/s 0.3 mm 15.5° 1016.3 hPa 4.0 m/s 0.3 mm
08:00 16.3° 1016.9 hPa 4.2 m/s 0.3 mm 16.3° 1016.9 hPa 4.2 m/s 0.3 mm
11:00 19.6° 1017.8 hPa 4.8 m/s 0.0 mm 19.6° 1017.8 hPa 4.8 m/s 0.0 mm
14:00 20.9° 1018.2 hPa 4.5 m/s 0.0 mm 20.9° 1018.2 hPa 4.5 m/s 0.1 mm
17:00 22.1° 1017.9 hPa 4.8 m/s 0.0 mm 22.1° 1017.9 hPa 4.8 m/s 0.0 mm
20:00 19.3° 1018.3 hPa 3.7 m/s 0.0 mm 19.3° 1018.3 hPa 3.7 m/s 0.0 mm
23:00 15.1° 1019.5 hPa 2.1 m/s 0.0 mm 15.1° 1019.5 hPa 2.1 m/s 0.0 mm
 05:29     21:51    Daglengte: 16:22 Zondag 03 Jun
02:00 14.3° 1019.2 hPa 1.8 m/s 0.0 mm 14.3° 1019.2 hPa 1.8 m/s 0.0 mm
05:00 14.1° 1019.1 hPa 1.6 m/s 0.0 mm 14.1° 1019.1 hPa 1.6 m/s 0.0 mm
08:00 16.1° 1019.5 hPa 1.1 m/s 0.0 mm 16.1° 1019.5 hPa 1.1 m/s 0.0 mm
14:00 20.0° 1019.3 hPa 1.5 m/s 0.2 mm 20.0° 1019.3 hPa 1.5 m/s 0.2 mm
20:00 20.0° 1018.2 hPa 3.5 m/s 0.0 mm 20.0° 1018.2 hPa 3.5 m/s 0.1 mm
 05:28     21:52    Daglengte: 16:24 Maandag 04 Jun
02:00 12.5° 1018.6 hPa 3.2 m/s 0.0 mm 12.5° 1018.6 hPa 3.2 m/s 0.0 mm
08:00 13.2° 1017.7 hPa 3.3 m/s 0.0 mm 13.2° 1017.7 hPa 3.3 m/s 0.0 mm
14:00 21.8° 1016.6 hPa 3.8 m/s 0.0 mm 21.8° 1016.6 hPa 3.8 m/s 0.0 mm
20:00 17.4° 1016.0 hPa 5.4 m/s 0.2 mm 17.4° 1016.0 hPa 5.4 m/s 0.2 mm
 05:27     21:53    Daglengte: 16:26 Dinsdag 05 Jun
02:00 8.6° 1018.2 hPa 3.2 m/s 0.0 mm 8.6° 1018.2 hPa 3.2 m/s 0.0 mm
08:00 10.8° 1018.4 hPa 4.2 m/s 0.0 mm 10.8° 1018.4 hPa 4.2 m/s 0.0 mm
14:00 12.8° 1018.5 hPa 4.6 m/s 0.0 mm 12.8° 1018.5 hPa 4.6 m/s 0.1 mm
20:00 11.3° 1017.9 hPa 4.3 m/s 0.0 mm 11.3° 1017.9 hPa 4.3 m/s 0.1 mm
 05:27     21:54    Daglengte: 16:27 Woensdag 06 Jun
02:00 12.4° 1018.0 hPa 2.9 m/s 0.1 mm
08:00 13.4° 1018.1 hPa 3.0 m/s 0.0 mm
14:00 20.0° 1017.9 hPa 3.4 m/s 0.2 mm
20:00 18.3° 1017.2 hPa 4.5 m/s 0.6 mm
 05:26     21:55    Daglengte: 16:29 Donderdag 07 Jun
02:00 12.2° 1018.2 hPa 3.7 m/s 0.0 mm
08:00 13.2° 1018.3 hPa 3.4 m/s 0.1 mm
14:00 19.5° 1018.1 hPa 3.6 m/s 0.3 mm
20:00 18.1° 1017.2 hPa 4.5 m/s 0.5 mm
 05:26     21:55    Daglengte: 16:29 Vrijdag 08 Jun
02:00 12.0° 1017.7 hPa 2.5 m/s 0.2 mm
08:00 13.2° 1017.1 hPa 1.9 m/s 0.3 mm
14:00 19.4° 1016.5 hPa 2.9 m/s 0.4 mm
20:00 18.2° 1015.7 hPa 3.8 m/s 0.2 mm
 05:25     21:56    Daglengte: 16:31 Zaterdag 09 Jun
02:00 12.0° 1016.7 hPa 2.4 m/s 0.0 mm
08:00 12.9° 1016.6 hPa 2.3 m/s 0.1 mm
14:00 18.6° 1016.5 hPa 2.7 m/s 0.5 mm
20:00 17.6° 1015.7 hPa 3.9 m/s 0.5 mm
 05:25     21:57    Daglengte: 16:32 Zondag 10 Jun
02:00 11.7° 1016.6 hPa 3.1 m/s 0.1 mm
08:00 12.8° 1016.0 hPa 2.6 m/s 0.0 mm
14:00 20.0° 1015.5 hPa 2.5 m/s 0.2 mm
20:00 18.6° 1015.0 hPa 3.9 m/s 0.5 mm
 05:25     21:58    Daglengte: 16:33 Maandag 11 Jun
02:00 12.3° 1016.2 hPa 2.4 m/s 0.1 mm
FMI Hirlam - 7.5 km EWN WRFDA - 12 km DWD ICON - 7 km GFS - 25 km Basiskaart






























































Updatetijd (Europe/Amsterdam) Resolutie Lengte Stap
FMI Hirlam 07:00, 13:00, 19:00, 01:00 7.5 km 49h 1h
EWN WRFDA 04:15, 10:15, 16:15, 22:15 12 km 73h 1h
DWD ICON 07:00, 13:00, 19:00, 01:00 7 km 75h 1h
GFS 03:15, 09:15, 15:15, 21:15 25 km 237h 3h
30+ mm
25-30 mm
20-25 mm
15-20 mm
10-15 mm
6-10 mm
4-6 mm
2-4 mm
1-2 mm
0.5-1 mm
0.2-0.5 mm
0.1-0.2 mm
30+ mm
25-30 mm
20-25 mm
15-20 mm
10-15 mm
6-10 mm
4-6 mm
2-4 mm
1-2 mm
0.5-1 mm
0.2-0.5 mm
0.1-0.2 mm
Sneeuwval
Natte sneeuw
Hagel
Vorst
30+ mm
25-30 mm
20-25 mm
15-20 mm
10-15 mm
6-10 mm
4-6 mm
2-4 mm
1-2 mm
0.5-1 mm
0.2-0.5 mm
0.1-0.2 mm
Sneeuwval
Natte sneeuw
Hagel
Vorst
Onweer
50 mm
40 mm
30 mm
26 mm
22 mm
18 mm
14 mm
10 mm
9 mm
8 mm
7 mm
6 mm
5 mm
4.5 mm
4 mm
3.5 mm
3 mm
2.5 mm
2 mm
1.5 mm
1 mm
0.8 mm
0.6 mm
0.4 mm
0.2 mm
0.05 mm
35°
30°
25°
20°
15°
10°
-5°
-10°
-15°
-20°
-25°
-30°
-35°
33> m/s
29 m/s
25 m/s
21 m/s
17 m/s
14 m/s
11 m/s
8 m/s
5 m/s
3 m/s
0 m/s
2600 J/kg
2400 J/kg
2200 J/kg
2000 J/kg
1800 J/kg
1600 J/kg
1400 J/kg
1200 J/kg
1000 J/kg
800 J/kg
600 J/kg
400 J/kg
200 J/kg
70 dBZ
65 dBZ
60 dBZ
55 dBZ
50 dBZ
45 dBZ
40 dBZ
35 dBZ
30 dBZ
25 dBZ
20 dBZ
15 dBZ
10 dBZ
5 dBZ
-1 K
-2 K
-3 K
-4 K
-5 K
-6 K
-7 K
-8 K
-9 K
950 m²/s²
900 m²/s²
850 m²/s²
800 m²/s²
750 m²/s²
700 m²/s²
650 m²/s²
600 m²/s²
550 m²/s²
500 m²/s²
450 m²/s²
400 m²/s²
350 m²/s²
300 m²/s²
250 m²/s²
200 m²/s²
150 m²/s²
100 m²/s²
46 m/s
44 m/s
42 m/s
40 m/s
38 m/s
36 m/s
34 m/s
32 m/s
30 m/s
28 m/s
26 m/s
24 m/s
22 m/s
20 m/s
16 m/s
12 m/s
8 m/s
4 m/s
30 m/s
28 m/s
26 m/s
24 m/s
22 m/s
20 m/s
18 m/s
16 m/s
14 m/s
12 m/s
10 m/s
8 m/s
6 m/s
4 m/s
2 m/s
3.0
2.8
2.6
2.4
2.2
2.0
1.8
1.6
1.4
1.2
1.0
0.8
0.6
0.4
0.2
15
14
13
12
11
10
9
8
7
6
5
4
3
2
1
90%
80%
70%
60%
50%
40%
30%
20%
10%
42
40
38
36
34
32
30
28
26
24
22
20
18
16
14
12
90+ cm
80-90 cm
70-80 cm
60-70 cm
50-60 cm
40-50 cm
30-40 cm
20-30 cm
10-20 cm
1-10 cm
Sneeuwval
Natte sneeuw
Regen
>120 mm
115 mm
110 mm
105 mm
100 mm
95 mm
90 mm
85 mm
80 mm
75 mm
70 mm
65 mm
60 mm
55 mm
50 mm
45 mm
45 mm
40 mm
35 mm
30 mm
25 mm
20 mm
15 mm
10 mm
5 mm
0.1 mm
960 hPa
880 hPa
800 hPa
720 hPa
640 hPa
560 hPa
584 gpdm
568 gpdm
552 gpdm
536 gpdm
520 gpdm
504 gpdm
488 gpdm
Extreem zwaar Noodweer Kans op onweer
15% 15% 5% 50% 15%

Dag




Kaart






35°
30°
25°
20°
15°
10°
-5°
-10°
-15°
-20°
-25°
-30°
-35°
33> m/s
29 m/s
25 m/s
21 m/s
17 m/s
14 m/s
11 m/s
8 m/s
5 m/s
3 m/s
0 m/s
Extreem zwaar Noodweer Kans op onweer
15% 15% 5% 50% 15%
>120 mm
115 mm
110 mm
105 mm
100 mm
95 mm
90 mm
85 mm
80 mm
75 mm
70 mm
65 mm
60 mm
55 mm
50 mm
45 mm
45 mm
40 mm
35 mm
30 mm
25 mm
20 mm
15 mm
10 mm
5 mm
0.1 mm
Onweer risico kaarten - De groene en gele kleur geeft de kans op onweer aan binnen 40 km van een punt. Oranje, rood en violet hebben hetzelfde niveau zoals je het ziet op estofex.org waaronder ook de kans op hagel en supercells.

dBZ - dBZ staat voor decibel ten opzichte van Z.

Cape - Convective available potential energy (CAPE), is de totale hoeveelheid energie die een luchtpakketje nodig heeft om zover mogelijk te stijgen in de atmosfeer.

K Index - K-Index wordt berekend door de Vertical Totals (VT) en het verschil tussen de 850 hPa temperatuur en de 700 hPa dauwpuntsdepressie (Tdd 700) bij elkaar op te tellen.

TT Index - Convectie index wordt gebruikt voor het voorspellen van zware buien of onweer.

WRF - The Weather Research and Forecasting (WRF) is een volgende generatie mesoscale numeriek weersvoorspelling systeem ontworpen om zowel de operationele planning als het atmosferisch onderzoek te dienen. WRF is a cooperatie tussen het National Center for Atmospheric Research (NCAR), National Centers for Environmental Prediction (NCEP), Forecast Systems Laboratory (FSL), Air Force Weather Agency (AFWA), Naval Research Laboratory, University of Oklahoma, en de Federal Aviation Administration (FAA). Deze software draait op onze server.

WRFDA - Een meer geavanceerde versie van WRF

Arome - Het 2.5 km Arome model. Verzorgd door het Noors Meteorologisch Instituut.

MET Norway - De proff-default 4km meteorological data is een beste keus selectie van meteorologische modellen gebruikt door met.no die zijn geïnterpoleerd tot een gemeenschappelijke dataset. Verzorgd door het Noorse Meteorologisch Instituut.

SMHI - Het Hirlam model verzorgd door het Zweeds meteorologisch instituut.

FMI - Het Hirlam model verzorgd door het Fins meteorologisch instituut. Dekking alleen Finland.

GFS - Het Global Forecast Systeem (GFS) is een wereldwijd numerieke weersvoorspelling computermodel, gerund door NOAA.

GEM-GDPS - Het GEM-GDPS is a wereldwijd numeriek weersvoorspelling computermodel verzorgd door het Canadees Meteorologisch Centrum.

Credits/Info: Dank aan Stefan Gofferje van sääkeskus.fi voor enkele formules van GrADS. Info: Wikipedia.

Betrouwbaarheid van de verwachting

NB! 2015-03-29: Rebuilding the accuracy-test!

EWNACC
Day 1 Good forecasts

Dag 1 Tmax

Dag 2 Tmax

Geladen verwachtingen TOP 50

Totaal geladen verwachtingen:
Plaats Latitude Longitude Verwachtingen Plaats Latitude Longitude Verwachtingen